,

(GMT )
Banff

Weather History for CWZG - October, 2012

Change the Weather History Date:

Thursday, October 4, 2012

  Actual Average Record
Temperature  
Mean Temperature 30 °F -  
Max Temperature 44 °F - - ()
Min Temperature 16 °F - - ()
Degree Days  
Heating Degree Days 35    
Moisture  
Dew Point 17 °F    
Average Humidity 67    
Maximum Humidity 94    
Minimum Humidity 26    
Precipitation  
Precipitation 0.00 in - - ()
Sea Level Pressure  
Sea Level Pressure 30.51 in    
Wind  
Wind Speed 1 mph ()    
Max Wind Speed 6 mph    
Max Gust Speed -    
T = Trace of Precipitation, MM = Missing Value Source: Averaged Metar Reports

Daily Weather History Graph

Daily Weather History Graph

Search for Another Location

Airport or City:

Trip Planner

Search our weather history database for the weather conditions in past years. The results will help you decide how hot, cold, wet, or windy it might be!

Date:

Astronomy

Oct. 04, 2012 Rise Set
Actual Time 7:48 AM MDT 7:11 PM MDT
Civil Twilight 7:15 AM MDT 7:44 PM MDT
Nautical Twilight 6:37 AM MDT 8:23 PM MDT
Astronomical Twilight 5:57 AM MDT 9:02 PM MDT
Moon 9:19 PM MDT (10/4) 12:40 PM MDT (10/4)
Length of Visible Light 12h 29m
Length of Day
11h 23m
Waning Gibbous, 81% of the Moon is Illuminated
Oct 4
Waning Gibbous
Oct 8
Last Quarter
Oct 15
New
Oct 21
First Quarter
Oct 29
Full

Hourly Weather History & Observations

Time (MDT) Temp. Windchill Dew Point Humidity Pressure Visibility Wind Dir Wind Speed Gust Speed Precip Events Conditions
12:00 AM 24.8 °F - 22.6 °F 91% 30.56 in - Calm Calm - N/A   Unknown
1:00 AM 23.0 °F - 21.4 °F 94% 30.56 in - Calm Calm - N/A   Unknown
2:00 AM 21.6 °F - 19.8 °F 93% 30.56 in - Calm Calm - N/A   Unknown
3:00 AM 20.5 °F - 18.7 °F 93% 30.55 in - Calm Calm - N/A   Unknown
4:00 AM 18.5 °F - 16.9 °F 93% 30.56 in - NNW 1.2 mph - N/A   Unknown
5:00 AM 19.6 °F - 18.0 °F 93% 30.55 in - Calm Calm - N/A   Unknown
6:00 AM 18.3 °F - 16.7 °F 93% 30.56 in - NW 1.2 mph - N/A   Unknown
7:00 AM 18.5 °F - 16.9 °F 93% 30.57 in - NW 1.2 mph - N/A   Unknown
8:00 AM 16.0 °F - 14.0 °F 92% 30.58 in - Calm Calm - N/A   Unknown
9:00 AM 21.7 °F - 19.4 °F 91% 30.57 in - SSW 2.3 mph - N/A   Unknown
10:00 AM 25.9 °F 21.7 °F 19.8 °F 78% 30.56 in - SW 3.5 mph - N/A   Unknown
11:00 AM 30.9 °F 26.2 °F 19.6 °F 63% 30.53 in - SW 4.6 mph - N/A   Unknown
12:00 PM 36.1 °F - 20.7 °F 53% 30.51 in - NNW 2.3 mph - N/A   Unknown
1:00 PM 40.8 °F - 15.6 °F 36% 30.48 in - SW 2.3 mph - N/A   Unknown
2:00 PM 42.6 °F 39.0 °F 12.9 °F 30% 30.46 in - SSE 5.8 mph - N/A   Unknown
3:00 PM 44.1 °F 40.8 °F 11.3 °F 26% 30.45 in - ENE 5.8 mph - N/A   Unknown
4:00 PM 44.2 °F - 12.7 °F 28% 30.44 in - West 2.3 mph - N/A   Unknown
5:00 PM 43.9 °F 41.3 °F 11.1 °F 26% 30.43 in - SSE 4.6 mph - N/A   Unknown
6:00 PM 41.9 °F 40.0 °F 11.5 °F 29% 30.45 in - ENE 3.5 mph - N/A   Unknown
7:00 PM 33.6 °F - 16.5 °F 50% 30.49 in - North 1.2 mph - N/A   Unknown
8:00 PM 28.8 °F - 19.4 °F 68% 30.49 in - North 1.2 mph - N/A   Unknown
9:00 PM 30.2 °F 25.4 °F 19.2 °F 64% 30.48 in - NE 4.6 mph - N/A   Unknown
10:00 PM 29.3 °F - 19.4 °F 67% 30.48 in - NE 2.3 mph - N/A   Unknown
11:00 PM 26.1 °F - 19.2 °F 75% 30.48 in - NE 2.3 mph - N/A   Unknown